COSMOS 2251 DEB, 35701

Orbit data source: Space-Track

COSMOS 2251 DEB, 35701 is space debris in LEO originally from a launch on Wed, 16 Jun 1993 UTC launched from the Plesetsk Missile And Space Complex (PKMTR). The debris from Iridium 33, an American commercial communications satellite, has been tracked extensively since its accidental collision with the defunct Russian satellite Cosmos 2251 in 2009. This event, occurring at high speed in low Earth orbit (LEO), generated thousands of pieces of space debris, significantly increasing the risk of further collisions. The Iridium 33 debris cloud has impacted space traffic management and orbital debris mitigation strategies, making it a subject of ongoing study in space situational awareness.

Loading next visibility...
Identifier
35701, 1993-036APW
Orbit
LEO
Country
Flag of CISCIS
Related business
Manufacturer
Unknown
Mission
Spacecraft
Bus & Motor
Unknown
Mass
Unknown
Launch date (UTC)
1993-06-16 (33 years ago)
Launch vehicle
Unknown
Launch site
Plesetsk Missile And Space Complex (PKMTR)
Object type
Payload
Rocket body
Debris
Shape & HBR
Unknown shape, 0.1 m
Radar Cross Section
Small (<0.1 m²)

Expand to show TLE details & history
Last TLE update: 2 weeks ago

TLE from 2 weeks ago
0 COSMOS 2251 DEB
1 35701U 93036APW 26224.74433786  .00000374  00000-0  27078-3 0  9996
2 35701  73.9983 253.3845 0287267  49.6754 312.9086 13.81678965655148
Epoch: 2026-08-12T17:51Z
TLE epoch observation values (Epoch: 2026-08-12T17:51:50.791Z)
Latitude
0.00004°
Longitude
24.229°
Altitude
820.323 km
Speed
7.514 km/s
True Right ascension
16h 53m 32s
True Declination
0° 00' 00"
Sunlit
Object was in daylight at epoch
Visualization orbit readout
Latitude
Unknown
Longitude
Unknown
Altitude
Unknown
Speed
Unknown
Apparent Right ascension
Unknown
Apparent Declination
Unknown
Sunlit
N/A
Visualization observer readout
Local Sidereal Time
08:21:08
Azimuth
Unknown
Elevation
Unknown
Doppler factor
Unknown
Orbital elements
Apogee altitude
1,166.297 km
Perigee altitude
744.948 km
Semi-major axis
7,333.759 km
Eccentricity
0.02873
Inclination
73.9983°
RAAN
253.3845°
Arg. of periapsis
49.6754°
True anomaly
310.43793°
Mean anomaly
312.9086°
Eccentric anomaly
311.6793°
Mean motion
3.45584 °/min
Orbital period
104.17 mins
BSTAR
0.00027078
Loading maneuver chart data...
Computing Atmospheric mass density...

Documentation

Showing up to 5 results
|